AirNav   Pilot Hours Calculator
 
 1526 users online  

92MO Fox Run Heliport
Eureka, Missouri, USA

GOING TO EUREKA?


FAA INFORMATION EFFECTIVE 07 OCTOBER 2021

Location

FAA Identifier: 92MO
Lat/Long: 38-26-38.1900N 090-36-25.4500W
38-26.636500N 090-36.424167W
38.4439417,-90.6070694
(estimated)
Elevation: 510 ft. / 155 m (estimated)
Variation: 01E (1995)
From city: 2 miles E of EUREKA, MO
Time zone: UTC -5 (UTC -6 during Standard Time)
Zip code: 63025

Heliport Operations

Heliport use: Private use. Permission required prior to landing
Activation date: 07/1997
Control tower: no
ARTCC: KANSAS CITY CENTER
FSS: SAINT LOUIS FLIGHT SERVICE STATION
Attendance: JUN-OCT 0600-0000
Segmented circle: no
Lights: FOR PERIMETER LGTS CALL 314-938-4653.

Heliport Communications

WX ASOS at SUS (13 nm N): 134.8 (314-890-7255)

Nearby radio navigation aids

VOR radial/distance  VOR name  Freq  Var
FTZr126/22.8FORISTELL VORTAC110.8005E
STLr192/25.7ST LOUIS VORTAC117.4001E
TOYr237/36.8TROY VORTAC116.0004E

 
NDB name  Hdg/Dist  Freq  Var  ID
SNOOP148/13.932601WSU ... ..-
EAVES192/14.322701WFZ ..-. --..
CIVIC MEMORIAL225/37.326301WCVM -.-. ...- --

Heliport Services

Runway Information

Helipad H1

Dimensions: 100 x 60 ft. / 30 x 18 m
Surface: concrete
Runway edge lights: PERI
Latitude: 38-26.636500N
Longitude: 090-36.424167W
Elevation: 510.0 ft.
Traffic pattern: leftleft

Heliport Ownership and Management from official FAA records

Ownership: Privately-owned
Owner: FOX RUN GOLF CLUB INC
1 PUTT LANE
EUREKA, MO 63025
Phone 314-938-3354
Manager: GARY AULT
1 PUTT LANE
EUREKA, MO 63025
Phone 314-938-3354

Additional Remarks

A52-H1 80 FT TREES 275 FT W.
FOR CD CTC ST LOUIS APCH AT 314-890-1018.

Instrument Procedures

There are no published instrument procedures at 92MO.

Some nearby airports with instrument procedures:

KSUS - Spirit of St Louis Airport (13 nm N)
1H0 - Creve Coeur Airport (18 nm N)
KFES - Festus Memorial Airport (18 nm SE)
KFYG - Washington Regional Airport (20 nm NW)
KSTL - St Louis Lambert International Airport (21 nm NE)
 
Loc | Ops | Rwys | IFR | FBO | Links
Com | Nav | Svcs | Stats | Notes
Area around 92MO (Fox Run Heliport)
 
Road maps at: MapQuest Bing Google
 
Aerial photo
No photo
 
Sectional chart

 
Airport distance calculator
Flying to Fox Run Heliport? Find the distance to fly.

From to 92MO

Sunrise and sunset
Times for 21-Oct-2021
 Local
(UTC-5)
 Zulu
(UTC)
Morning civil twilight06:5211:52
Sunrise07:1812:18
Sunset18:1623:16
Evening civil twilight18:4323:43

Current date and time
Zulu (UTC)  21-Oct-2021 15:31:03
Local (UTC-5)  21-Oct-2021 10:31:03
 
METAR
KSUS 
13nm N 
211454Z 28013G21KT 10SM OVC025 10/04 A3008 RMK AO2 SLP184 T01000044 53020
KFYG 
20nm NW 
211515Z AUTO 30015KT 10SM OVC023 10/05 A3010 RMK AO2
KSTL 
22nm NE 
211451Z 28014G23KT 10SM OVC022 11/05 A3008 RMK AO2 SLP181 T01060050 53019
KCPS 
23nm E 
211518Z 31018G23KT 10SM OVC029 11/06 A3008 RMK AO2 T01110056
TAF
KSUS 
13nm N 
211132Z 2112/2212 27010G16KT P6SM SCT025 TEMPO 2113/2115 BKN025 FM211500 29014G22KT P6SM BKN025 FM220000 30007KT P6SM BKN030 FM220900 VRB04KT P6SM BKN025
NOTAMs
Click for the latest NOTAMs
NOTAMs are issued by the DoD/FAA and will open in a separate window not controlled by AirNav.

 

 
 

Would you like to see your business listed on this page?

 If your business provides an interesting product or service to pilots, flight crews, aircraft, or users of the Fox Run Heliport, you should consider listing it here.  To start the listing process, click on the button below
 
Add a business
 

Other Pages about Fox Run Heliport

Update a link
 
Copyright © AirNav, LLC. All rights reserved. Privacy Policy  Contact